Location: Belluno
(46.1450°N, 12.2210°E)
Time: 10:18:18
(UTC+02:00)

ISS - Visible Passes

Search period start: 08 May 2021 00:00
Search period end: 18 May 2021 00:00
Orbit: 418 x 421 km, 51.6° (Epoch: 08 May)

Date Brightness Start Highest point End Pass type
(mag) Time Alt. Az. Time Alt. Az. Time Alt. Az.
08 May -2.7 02:49:24 44° NNW 02:49:24 44° NNW 02:52:38 10° ENE visible
08 May -1.9 04:23:37 10° WNW 04:26:41 31° N 04:29:45 10° ENE visible
09 May -1.8 02:03:26 27° NE 02:03:26 27° NE 02:05:13 10° ENE visible
09 May -1.9 03:36:22 12° WNW 03:39:06 31° N 03:42:11 10° ENE visible
10 May -0.8 01:17:27 12° ENE 01:17:27 12° ENE 01:17:48 10° ENE visible
10 May -2.0 02:50:22 25° NW 02:51:33 32° N 02:54:38 10° ENE visible
10 May -2.3 04:25:41 10° WNW 04:28:54 38° NNE 04:32:05 10° E visible
11 May -2.1 02:04:21 35° N 02:04:21 35° N 02:07:09 10° ENE visible
11 May -2.0 03:38:13 10° WNW 03:41:20 33° N 03:44:28 10° ENE visible
12 May -1.5 01:18:16 22° NE 01:18:16 22° NE 01:19:43 10° ENE visible
12 May -1.9 02:51:12 13° WNW 02:53:46 31° N 02:56:50 10° ENE visible
12 May -3.3 04:27:37 10° WNW 04:30:59 64° NNE 04:34:20 10° ESE visible
13 May -0.8 00:32:07 11° ENE 00:32:07 11° ENE 00:32:18 10° ENE visible
13 May -1.9 02:05:02 24° NW 02:06:12 30° N 02:09:15 10° ENE visible
13 May -2.7 03:40:12 10° WNW 03:43:30 47° NNE 03:46:47 10° E visible
14 May -2.0 01:18:38 32° N 01:18:38 32° N 01:21:42 10° ENE visible
14 May -2.3 02:52:45 10° WNW 02:55:58 38° NNE 02:59:09 10° E visible
14 May -3.8 04:29:35 10° WNW 04:32:55 59° SSW 04:36:15 10° SE visible
14 May -1.8 21:16:35 10° SSE 21:17:47 12° SE 21:19:00 10° ESE visible
14 May -3.9 22:50:42 10° SW 22:54:03 70° SSE 22:55:40 28° ENE visible
15 May -2.2 00:27:54 10° W 00:31:03 36° NNW 00:34:14 10° ENE visible
15 May -2.0 02:05:18 10° WNW 02:08:24 33° N 02:11:31 10° ENE visible
15 May -3.8 03:42:07 10° WNW 03:45:30 89° SSW 03:48:52 10° ESE visible
15 May -3.5 22:03:27 10° SW 22:06:40 45° SE 22:09:54 10° ENE visible
15 May -2.6 23:40:17 10° W 23:43:30 43° NNW 23:46:46 10° ENE visible
16 May -1.8 01:17:46 10° WNW 01:20:50 31° N 01:23:54 10° ENE visible
16 May -3.4 02:54:40 10° WNW 02:58:03 64° NNE 03:01:24 10° ESE visible
16 May -2.7 04:31:50 10° W 04:34:38 24° SW 04:37:25 10° SSE visible
16 May -2.9 21:16:24 10° SSW 21:19:20 28° SE 21:22:18 10° E visible
16 May -3.1 22:52:41 10° WSW 22:56:00 56° NNW 22:59:20 10° ENE visible
17 May -1.8 00:30:12 10° WNW 00:33:15 30° N 00:36:18 10° ENE visible
17 May -2.8 02:07:15 10° WNW 02:10:32 48° NNE 02:13:49 10° E visible
17 May -3.3 03:44:10 10° WNW 03:47:19 37° SW 03:50:28 10° SSE visible
17 May -3.7 22:05:10 10° WSW 22:08:32 79° NNW 22:11:55 10° ENE visible
17 May -1.9 23:42:35 10° WNW 23:45:41 32° N 23:48:45 10° ENE visible
